QPF
0.00 0.00 0.00 0.00 0.00 0.00 0.00 0.00 0.00 0.00 0.00 0.00 0.00 0.00 0.00 0.00 0.00 0.00 0.00 0.00 0.00 0.00 0.00 0.00 0.00 0.00 0.00 0.00 0.00 0.00 0.00 0.00 0.00 0.00 0.00 0.00 0.00 0.00 0.00 0.00 0.00 0.00 0.00
0.00 0.00 0.00 0.00 0.00 0.00 0.00 0.00 0.00 0.00 0.00 0.00 0.00 0.00 0.00 0.00 0.00 0.00 0.00 0.00 0.00 0.00 0.00 0.00 0.00 0.00 0.00 0.00 0.00 0.00 0.00 0.00 0.00 0.00 0.00 0.00 0.00 0.00 0.00 0.00 0.00 0.00 0.00
0.00 0.00 0.00 0.00 0.00 0.00 0.00 0.00 0.00 0.00 0.00 0.00 0.00 0.00 0.00 0.00 0.00 0.00 0.00 0.00 0.00 0.00 0.00 0.00 0.00 0.00 0.00 0.00 0.00 0.00 0.00 0.00 0.00 0.00 0.00 0.00 0.00 0.00 0.00 0.00 0.00 0.00 0.00
0.00 0.00 0.00 0.00 0.00 0.00 0.00 0.00 0.00 0.00 0.00 0.00 0.00 0.00 0.00 0.00 0.00 0.00 0.00 0.00 0.00 0.00 0.00 0.00 0.00 0.00 0.00 0.00 0.01 0.00 0.00 0.00 0.00 0.00 0.00 0.00 0.00 0.00 0.00 0.00 0.00 0.00 0.00
0.00 0.00 0.00 0.00 0.00 0.00 0.00 0.00 0.00 0.00 0.00 0.00 0.00 0.00 0.00 0.00 0.00 0.00 0.00 0.00 0.00 0.00 0.00 0.00 0.00 0.00 0.00 0.00 0.01 0.01 0.00 0.00 0.00 0.00 0.00 0.00 0.00 0.00 0.00 0.00 0.00 0.00 0.00
0.00 0.00 0.00 0.00 0.00 0.00 0.00 0.00 0.00 0.00 0.00 0.00 0.00 0.00 0.00 0.00 0.00 0.00 0.00 0.00 0.00 0.00 0.00 0.00 0.00 0.00 0.00 0.00 0.01 0.00 0.00 0.00 0.00 0.00 0.00 0.00 0.00 0.00 0.00 0.00 0.00 0.00 0.00
0.00 0.00 0.00 0.00 0.00 0.00 0.00 0.00 0.00 0.00 0.00 0.00 0.00 0.00 0.00 0.00 0.00 0.00 0.00 0.00 0.00 0.00 0.00 0.00 0.00 0.00 0.00 0.00 0.00 0.00 0.00 0.00 0.00 0.00 0.00 0.00 0.00 0.00 0.00 0.00 0.00 0.00 0.00
0.00 0.00 0.00 0.00 0.00 0.00 0.00 0.00 0.00 0.00 0.00 0.00 0.00 0.00 0.00 0.00 0.00 0.00 0.00 0.00 0.00 0.00 0.00 0.00 0.00 0.00 0.00 0.00 0.00 0.00 0.00 0.00 0.00 0.00 0.00 0.00 0.00 0.00 0.00 0.00 0.00 0.00 0.00
0.00 0.00 0.00 0.00 0.00 0.00 0.00 0.00 0.00 0.00 0.00 0.00 0.00 0.00 0.00 0.00 0.00 0.00 0.00 0.00 0.00 0.00 0.00 0.00 0.00 0.00 0.00 0.00 0.00 0.00 0.00 0.00 0.00 0.00 0.00 0.00 0.00 0.00 0.00 0.00 0.00 0.00 0.00
0.00 0.00 0.00 0.00 0.00 0.00 0.00 0.00 0.00 0.00 0.00 0.00 0.00 0.00 0.00 0.00 0.00 0.00 0.00 0.00 0.00 0.00 0.00 0.00 0.00 0.00 0.00 0.00 0.00 0.00 0.00 0.00 0.00 0.00 0.00 0.00 0.00 0.00 0.00 0.00 0.00 0.00 0.00
0.00 0.00 0.00 0.00 0.00 0.00 0.00 0.00 0.00 0.00 0.00 0.00 0.00 0.00 0.00 0.00 0.00 0.00 0.00 0.00 0.00 0.00 0.00 0.00 0.00 0.00 0.00 0.00 0.00 0.00 0.00 0.00 0.00 0.00 0.00 0.00 0.00 0.00 0.00 0.00 0.00 0.00 0.00
0.00 0.00 0.00 0.00 0.00 0.00 0.00 0.00 0.00 0.00 0.00 0.00 0.00 0.00 0.00 0.00 0.00 0.00 0.00 0.00 0.00 0.00 0.00 0.00 0.00 0.00 0.00 0.00 0.00 0.00 0.00 0.00 0.00 0.00 0.00 0.00 0.00 0.00 0.00 0.00 0.00 0.00 0.00
0.00 0.00 0.00 0.00 0.00 0.00 0.00 0.00 0.00 0.00 0.00 0.00 0.00 0.00 0.00 0.00 0.00 0.00 0.00 0.00 0.00 0.00 0.00 0.00 0.00 0.00 0.00 0.00 0.00 0.00 0.00 0.00 0.00 0.00 0.00 0.00 0.00 0.00 0.00 0.00 0.00 0.00 0.00
0.00 0.00 0.00 0.00 0.00 0.00 0.00 0.00 0.00 0.00 0.00 0.00 0.00 0.00 0.00 0.00 0.00 0.00 0.00 0.00 0.00 0.00 0.00 0.00 0.00 0.00 0.00 0.00 0.00 0.00 0.00 0.00 0.00 0.00 0.00 0.00 0.00 0.00 0.00 0.00 0.00 0.00 0.00
0.00 0.00 0.00 0.00 0.00 0.00 0.00 0.00 0.00 0.00 0.00 0.00 0.00 0.00 0.00 0.00 0.00 0.00 0.00 0.00 0.00 0.00 0.00 0.00 0.00 0.00 0.00 0.00 0.00 0.00 0.00 0.00 0.00 0.00 0.00 0.00 0.00 0.00 0.00 0.00 0.00 0.00 0.00
0.00 0.00 0.00 0.00 0.00 0.00 0.00 0.00 0.00 0.00 0.00 0.00 0.00 0.00 0.00 0.00 0.00 0.00 0.00 0.00 0.00 0.00 0.00 0.00 0.00 0.00 0.00 0.00 0.00 0.00 0.00 0.00 0.00 0.00 0.00 0.00 0.00 0.00 0.00 0.00 0.00 0.00 0.00
0.00 0.00 0.00 0.00 0.00 0.00 0.00 0.00 0.00 0.00 0.00 0.00 0.00 0.00 0.00 0.00 0.00 0.00 0.00 0.00 0.00 0.00 0.00 0.00 0.00 0.00 0.00 0.00 0.00 0.00 0.00 0.00 0.00 0.00 0.00 0.00 0.00 0.00 0.00 0.00 0.00 0.00 0.00
0.00 0.00 0.00 0.00 0.00 0.00 0.00 0.00 0.00 0.00 0.00 0.00 0.00 0.00 0.00 0.00 0.00 0.00 0.00 0.00 0.00 0.00 0.00 0.00 0.00 0.00 0.00 0.00 0.00 0.00 0.00 0.00 0.00 0.00 0.00 0.00 0.00 0.00 0.00 0.00 0.00 0.00 0.00
0.00 0.00 0.00 0.00 0.00 0.00 0.00 0.00 0.00 0.00 0.00 0.00 0.00 0.00 0.00 0.00 0.00 0.00 0.00 0.00 0.00 0.00 0.00 0.00 0.00 0.00 0.00 0.00 0.00 0.00 0.00 0.00 0.00 0.00 0.00 0.00 0.00 0.00 0.00 0.00 0.00 0.00 0.00
0.00 0.00 0.00 0.00 0.00 0.00 0.00 0.00 0.00 0.00 0.00 0.00 0.00 0.00 0.00 0.00 0.00 0.00 0.00 0.00 0.00 0.00 0.00 0.00 0.00 0.00 0.00 0.00 0.00 0.00 0.00 0.00 0.00 0.00 0.00 0.00 0.00 0.00 0.00 0.00 0.00 0.00 0.00
0.00 0.00 0.00 0.00 0.00 0.00 0.00 0.00 0.00 0.00 0.00 0.00 0.00 0.00 0.00 0.00 0.00 0.00 0.00 0.00 0.00 0.00 0.00 0.00 0.00 0.00 0.00 0.00 0.00 0.00 0.00 0.00 0.00 0.00 0.00 0.00 0.00 0.00 0.00 0.00 0.00 0.00 0.00
0.00 0.00 0.00 0.00 0.00 0.00 0.00 0.00 0.00 0.00 0.00 0.00 0.00 0.00 0.00 0.00 0.00 0.00 0.00 0.00 0.00 0.00 0.00 0.00 0.00 0.00 0.00 0.00 0.00 0.00 0.00 0.00 0.00 0.00 0.00 0.00 0.00 0.00 0.00 0.00 0.00 0.00 0.00
0.00 0.00 0.00 0.00 0.00 0.00 0.00 0.00 0.00 0.00 0.00 0.00 0.00 0.00 0.00 0.00 0.00 0.00 0.00 0.00 0.00 0.00 0.00 0.00 0.00 0.00 0.00 0.00 0.00 0.00 0.00 0.00 0.00 0.00 0.00 0.00 0.00 0.00 0.00 0.00 0.00 0.00 0.00
0.00 0.00 0.00 0.00 0.00 0.00 0.00 0.00 0.00 0.00 0.00 0.00 0.00 0.00 0.00 0.00 0.00 0.00 0.00 0.00 0.00 0.00 0.00 0.00 0.00 0.00 0.00 0.00 0.00 0.00 0.00 0.00 0.00 0.00 0.00 0.00 0.00 0.00 0.00 0.00 0.00 0.00 0.00
0.00 0.00 0.00 0.00 0.00 0.00 0.00 0.00 0.00 0.00 0.00 0.00 0.00 0.00 0.00 0.00 0.00 0.00 0.00 0.00 0.00 0.00 0.00 0.00 0.00 0.00 0.00 0.00 0.00 0.00 0.00 0.00 0.00 0.00 0.00 0.00 0.00 0.00 0.00 0.00 0.00 0.00 0.00
0.00 0.00 0.00 0.00 0.00 0.00 0.00 0.00 0.00 0.00 0.00 0.00 0.00 0.00 0.00 0.00 0.00 0.00 0.00 0.00 0.00 0.00 0.00 0.00 0.00 0.00 0.00 0.00 0.00 0.00 0.00 0.00 0.00 0.00 0.00 0.00 0.00 0.00 0.00 0.00 0.00 0.00 0.00
MSLP
1019.94 1020.09 1020.39 1020.88 1020.83 1021.34 1021.35 1021.26 1021.25 1021.23 1021.21 1021.13 1021.12 1020.96 1020.84 1020.63 1020.33 1020.07 1019.79 1019.55 1019.35 1019.02 1018.57 1018.26 1017.75 1017.14 1016.67 1016.04 1015.34 1014.93 1014.64 1014.36 1013.96 1013.32 1013.07 1012.55 1012.01 1011.56 1010.90 1010.36 1009.73 1009.12 1008.28
1019.99 1020.53 1020.90 1020.86 1020.93 1021.20 1021.22 1021.18 1021.13 1021.22 1021.01 1021.01 1021.03 1020.89 1020.63 1020.34 1020.05 1019.90 1019.58 1019.35 1019.19 1018.83 1018.34 1017.93 1017.32 1016.67 1016.10 1015.54 1015.16 1014.78 1014.40 1014.07 1013.86 1013.28 1012.86 1012.32 1011.96 1011.21 1010.70 1010.18 1009.39 1008.62 1008.00
1020.11 1020.65 1020.85 1020.76 1020.98 1021.07 1021.05 1021.00 1021.03 1021.08 1020.92 1020.74 1020.74 1020.64 1020.35 1019.93 1019.61 1019.35 1019.07 1018.86 1018.53 1018.28 1017.87 1017.45 1016.86 1016.16 1015.63 1015.04 1014.72 1014.31 1013.93 1013.60 1013.40 1013.09 1012.53 1012.13 1011.57 1011.05 1010.47 1009.82 1009.29 1008.60 1007.83
1020.18 1020.59 1020.75 1020.74 1020.76 1020.76 1020.78 1020.81 1020.83 1020.92 1020.84 1020.58 1020.41 1020.28 1019.98 1019.54 1019.13 1018.67 1018.58 1018.25 1017.95 1017.69 1017.33 1016.96 1016.46 1015.93 1015.25 1014.75 1014.39 1013.98 1013.57 1013.34 1013.11 1012.78 1012.22 1011.85 1011.61 1010.97 1010.59 1010.15 1009.22 1008.45 1007.66
1020.19 1020.42 1020.54 1020.48 1020.49 1020.58 1020.67 1020.63 1020.54 1020.48 1020.32 1020.20 1020.10 1019.80 1019.42 1019.04 1018.53 1018.04 1017.81 1017.52 1017.41 1017.15 1016.93 1016.60 1016.14 1015.61 1015.00 1014.64 1014.21 1013.65 1013.29 1013.12 1012.84 1012.44 1012.07 1011.77 1011.54 1011.04 1010.76 1009.86 1009.34 1008.50 1007.31
1020.04 1020.15 1020.23 1020.24 1020.21 1020.29 1020.35 1020.27 1020.22 1020.06 1020.00 1019.85 1019.65 1019.47 1018.95 1018.40 1017.98 1017.57 1017.30 1017.23 1017.17 1017.07 1016.86 1016.38 1015.93 1015.50 1015.14 1014.59 1014.25 1013.80 1013.46 1013.08 1012.68 1012.34 1011.88 1011.54 1011.05 1010.91 1010.43 1009.94 1009.32 1008.52 1007.17
1019.89 1019.90 1019.79 1019.82 1019.91 1019.95 1019.98 1019.97 1020.00 1019.92 1019.77 1019.49 1019.31 1019.03 1018.50 1018.02 1017.55 1017.26 1017.18 1017.18 1017.08 1016.88 1016.62 1016.27 1015.80 1015.46 1015.06 1014.54 1014.12 1013.64 1013.24 1012.80 1012.42 1012.01 1011.69 1011.29 1010.83 1010.61 1010.38 1009.58 1008.85 1008.24 1007.47
1019.62 1019.55 1019.55 1019.62 1019.71 1019.72 1019.79 1019.76 1019.73 1019.61 1019.36 1019.17 1018.88 1018.59 1018.23 1017.96 1017.59 1017.36 1017.26 1017.10 1017.00 1016.77 1016.43 1016.05 1015.61 1015.23 1014.77 1014.36 1013.89 1013.35 1012.96 1012.47 1012.03 1011.67 1011.37 1010.96 1010.57 1010.15 1009.96 1009.42 1008.77 1007.60 1006.91
1019.24 1019.35 1019.41 1019.49 1019.62 1019.59 1019.65 1019.61 1019.46 1019.36 1019.09 1018.79 1018.54 1018.28 1018.13 1017.89 1017.58 1017.33 1017.18 1017.09 1016.95 1016.61 1016.07 1015.51 1015.18 1014.87 1014.49 1014.15 1013.57 1013.08 1012.67 1012.15 1011.59 1011.08 1010.77 1010.41 1010.00 1009.60 1009.38 1009.14 1008.45 1007.85 1006.94
1019.15 1019.19 1019.21 1019.29 1019.33 1019.55 1019.49 1019.35 1019.09 1019.01 1018.85 1018.41 1018.15 1018.00 1017.96 1017.84 1017.44 1017.27 1017.17 1017.11 1017.02 1016.40 1015.53 1014.97 1014.72 1014.54 1014.19 1013.79 1013.36 1012.87 1012.49 1012.01 1011.55 1010.83 1010.35 1009.94 1009.68 1009.42 1009.06 1008.98 1008.61 1008.07 1007.48
1018.98 1019.04 1019.05 1019.10 1019.20 1019.16 1019.18 1019.06 1018.82 1018.66 1018.43 1018.15 1018.05 1017.90 1017.87 1017.71 1017.39 1017.21 1017.04 1016.89 1016.79 1016.24 1015.52 1014.83 1014.37 1014.12 1013.74 1013.32 1013.03 1012.67 1012.34 1011.73 1011.12 1010.71 1010.29 1009.89 1009.50 1009.21 1008.94 1008.65 1008.30 1008.15 1007.75
1018.92 1018.93 1019.14 1019.13 1019.09 1019.05 1019.02 1018.70 1018.71 1018.61 1018.42 1018.23 1018.27 1018.24 1017.81 1017.47 1017.24 1016.88 1016.63 1016.44 1016.17 1015.85 1015.24 1014.72 1014.25 1013.83 1013.36 1012.91 1012.55 1012.26 1011.89 1011.39 1010.92 1010.59 1010.18 1009.75 1009.41 1009.03 1008.58 1008.25 1007.86 1007.50 1007.34
1019.07 1019.21 1019.25 1019.12 1019.02 1018.97 1019.08 1019.02 1018.77 1018.54 1018.43 1018.54 1018.56 1018.36 1017.87 1017.38 1017.08 1016.69 1016.33 1015.97 1015.54 1015.24 1014.81 1014.46 1013.97 1013.44 1012.92 1012.47 1012.08 1011.73 1011.40 1011.11 1010.75 1010.34 1010.01 1009.67 1009.30 1008.85 1008.40 1007.87 1007.41 1006.98 1006.39
1019.24 1019.29 1019.32 1019.41 1019.29 1019.17 1019.06 1018.91 1018.80 1018.57 1018.60 1018.61 1018.45 1018.22 1017.78 1017.46 1016.97 1016.43 1015.95 1015.44 1014.91 1014.48 1014.19 1013.91 1013.45 1012.94 1012.45 1012.07 1011.60 1011.26 1010.98 1010.68 1010.38 1010.10 1009.86 1009.57 1009.15 1008.69 1008.28 1007.88 1007.55 1007.04 1006.50
1019.31 1019.36 1019.44 1019.55 1019.50 1019.37 1019.08 1018.78 1018.68 1018.40 1018.33 1018.24 1018.14 1018.08 1017.83 1017.40 1016.85 1016.29 1015.66 1014.96 1014.30 1013.93 1013.84 1013.48 1012.87 1012.39 1011.94 1011.53 1011.18 1010.87 1010.58 1010.34 1010.08 1009.80 1009.64 1009.39 1009.07 1008.65 1008.26 1007.87 1007.54 1007.17 1006.83
1019.36 1019.48 1019.57 1019.67 1019.63 1019.41 1019.09 1018.76 1018.41 1018.15 1017.91 1017.88 1017.99 1017.87 1017.49 1017.16 1016.49 1015.78 1015.08 1014.39 1013.80 1013.52 1013.55 1013.02 1012.42 1011.98 1011.54 1011.10 1010.81 1010.48 1010.21 1009.93 1009.78 1009.56 1009.33 1009.18 1009.00 1008.70 1008.38 1007.94 1007.66 1007.39 1007.07
1019.44 1019.54 1019.64 1019.71 1019.61 1019.37 1019.07 1018.83 1018.71 1018.07 1017.87 1017.94 1017.82 1017.69 1017.38 1016.88 1016.23 1015.46 1014.76 1014.14 1013.46 1013.18 1013.01 1012.42 1011.97 1011.50 1011.09 1010.79 1010.54 1010.25 1009.90 1009.65 1009.48 1009.33 1009.16 1008.95 1008.87 1008.60 1008.31 1008.08 1007.83 1007.55 1007.21
1019.31 1019.40 1019.55 1019.44 1019.33 1019.11 1018.93 1018.82 1018.73 1018.69 1018.65 1018.30 1017.87 1017.65 1017.10 1016.58 1015.91 1015.14 1014.50 1013.86 1013.26 1012.70 1012.48 1011.98 1011.45 1011.03 1010.74 1010.47 1010.15 1009.92 1009.62 1009.36 1009.15 1009.04 1008.95 1008.80 1008.64 1008.45 1008.27 1008.17 1008.01 1007.76 1007.50
1019.25 1019.37 1019.23 1019.21 1019.08 1018.83 1018.79 1018.88 1018.81 1018.68 1018.66 1018.48 1018.14 1017.44 1016.85 1016.40 1015.65 1014.89 1014.30 1013.81 1013.19 1012.59 1012.10 1011.56 1011.05 1010.57 1010.36 1010.10 1009.76 1009.52 1009.34 1009.12 1008.96 1008.79 1008.68 1008.60 1008.43 1008.30 1008.20 1008.19 1008.10 1007.95 1007.69
1019.23 1019.20 1019.06 1019.01 1018.90 1018.74 1018.84 1018.90 1018.79 1018.78 1018.78 1018.68 1018.24 1017.64 1016.84 1016.35 1015.45 1014.66 1014.02 1013.44 1012.94 1012.41 1011.80 1011.21 1010.74 1010.35 1009.98 1009.74 1009.44 1009.20 1008.97 1008.79 1008.61 1008.44 1008.37 1008.37 1008.32 1008.22 1008.14 1008.21 1008.18 1008.08 1007.83
1019.33 1019.12 1019.03 1018.86 1018.81 1018.77 1018.77 1018.92 1019.04 1019.00 1018.99 1018.78 1018.33 1017.46 1016.85 1016.56 1015.53 1014.70 1013.81 1013.09 1012.62 1012.17 1011.57 1011.21 1010.69 1010.25 1009.78 1009.42 1009.06 1008.82 1008.61 1008.41 1008.24 1008.14 1008.13 1008.13 1008.19 1008.18 1008.21 1008.24 1008.20 1008.09 1007.88
1019.33 1019.21 1019.13 1019.11 1018.99 1018.86 1019.04 1019.29 1019.10 1019.00 1019.02 1018.83 1018.21 1017.41 1016.75 1016.26 1015.36 1014.57 1013.65 1013.04 1012.53 1012.06 1011.68 1011.20 1010.56 1010.02 1009.66 1009.24 1008.86 1008.54 1008.24 1008.00 1007.84 1007.82 1007.85 1007.96 1008.12 1008.14 1008.23 1008.22 1008.19 1008.07 1007.85
1019.40 1019.36 1019.39 1019.40 1019.21 1019.11 1019.27 1019.37 1019.30 1019.25 1019.21 1018.84 1018.13 1017.40 1016.79 1016.11 1015.20 1014.49 1013.78 1013.09 1012.48 1011.95 1011.61 1011.01 1010.35 1009.74 1009.26 1008.85 1008.42 1008.13 1007.82 1007.53 1007.41 1007.49 1007.65 1007.87 1008.05 1008.16 1008.23 1008.27 1008.26 1008.08 1007.76
1019.71 1019.73 1019.74 1019.66 1019.54 1019.55 1019.77 1019.81 1019.71 1019.59 1019.37 1018.79 1018.01 1017.40 1016.89 1016.08 1015.27 1014.68 1013.99 1013.29 1012.67 1012.11 1011.46 1010.81 1010.16 1009.60 1008.98 1008.39 1007.80 1007.31 1007.00 1006.84 1006.90 1007.20 1007.54 1007.79 1008.04 1008.30 1008.31 1008.41 1008.36 1008.18 1007.99
1020.12 1020.13 1020.12 1020.12 1020.18 1020.33 1020.31 1020.17 1020.02 1019.80 1019.40 1018.68 1017.95 1017.33 1016.80 1016.16 1015.55 1014.93 1014.26 1013.63 1012.95 1012.28 1011.38 1010.66 1009.95 1009.33 1008.63 1008.00 1007.39 1006.98 1006.74 1006.65 1006.81 1007.12 1007.54 1007.89 1008.21 1008.45 1008.53 1008.63 1008.55 1008.41 1008.59
1020.51 1020.51 1020.55 1020.57 1020.77 1020.80 1020.71 1020.56 1020.31 1019.97 1019.45 1018.67 1018.02 1017.41 1016.82 1016.41 1015.98 1015.31 1014.62 1013.88 1013.20 1012.39 1011.49 1010.68 1009.86 1009.13 1008.46 1007.88 1007.41 1006.98 1006.62 1006.61 1006.98 1007.36 1007.71 1008.12 1008.49 1008.79 1008.90 1008.99 1009.00 1008.91 1009.12
Thickness
5654 5648 5641 5632 5626 5617 5611 5606 5599 5591 5582 5575 5566 5560 5553 5548 5544 5539 5536 5533 5529 5525 5523 5519 5516 5514 5512 5511 5512 5510 5509 5510 5513 5517 5514 5514 5517 5520 5523 5525 5531 5535 5539
5650 5640 5632 5626 5620 5611 5604 5598 5590 5582 5575 5567 5557 5551 5546 5542 5537 5532 5530 5527 5523 5520 5518 5514 5513 5512 5510 5507 5504 5502 5501 5501 5501 5505 5508 5509 5508 5513 5516 5517 5523 5529 5532
5643 5633 5625 5620 5613 5605 5598 5592 5584 5575 5568 5561 5551 5543 5538 5535 5532 5529 5527 5524 5521 5517 5514 5510 5509 5508 5506 5504 5499 5498 5496 5495 5494 5495 5500 5502 5502 5503 5508 5512 5514 5518 5522
5635 5626 5620 5614 5607 5600 5593 5586 5578 5569 5561 5553 5545 5538 5534 5532 5531 5528 5525 5522 5519 5515 5511 5506 5503 5500 5500 5498 5495 5493 5492 5489 5487 5487 5491 5493 5490 5493 5495 5498 5503 5510 5513
5630 5622 5615 5608 5601 5594 5587 5580 5573 5566 5558 5550 5542 5538 5535 5532 5531 5529 5525 5522 5517 5512 5505 5501 5498 5495 5494 5489 5487 5487 5485 5483 5482 5482 5482 5481 5478 5479 5482 5489 5492 5496 5508
5623 5616 5609 5603 5597 5590 5583 5576 5569 5564 5555 5549 5543 5538 5535 5534 5531 5528 5524 5517 5511 5504 5498 5493 5490 5488 5484 5482 5478 5476 5474 5474 5473 5473 5473 5472 5473 5472 5473 5477 5481 5487 5500
5618 5612 5608 5601 5594 5587 5580 5574 5566 5559 5552 5548 5542 5538 5535 5532 5530 5526 5519 5511 5504 5498 5492 5487 5484 5481 5477 5474 5472 5470 5468 5467 5466 5466 5465 5465 5465 5463 5463 5469 5474 5478 5485
5614 5610 5604 5597 5590 5583 5576 5569 5562 5555 5551 5545 5540 5536 5533 5528 5524 5518 5511 5504 5497 5491 5486 5481 5477 5473 5471 5468 5466 5464 5462 5462 5461 5460 5459 5460 5461 5460 5460 5463 5466 5475 5480
5613 5606 5599 5591 5584 5578 5572 5564 5557 5551 5547 5542 5538 5533 5527 5521 5517 5511 5504 5496 5489 5483 5479 5476 5472 5468 5464 5461 5460 5459 5457 5456 5457 5457 5456 5456 5458 5459 5458 5458 5462 5466 5475
5608 5601 5594 5586 5580 5573 5565 5559 5554 5548 5543 5539 5534 5528 5521 5514 5509 5504 5496 5487 5479 5476 5474 5472 5467 5462 5457 5454 5453 5453 5450 5449 5449 5451 5453 5453 5452 5453 5454 5453 5455 5459 5465
5602 5596 5589 5581 5575 5569 5562 5555 5550 5544 5539 5535 5529 5521 5514 5507 5502 5496 5489 5480 5472 5469 5468 5466 5462 5456 5453 5451 5448 5446 5444 5444 5444 5443 5444 5445 5445 5445 5446 5448 5451 5454 5459
5596 5590 5581 5575 5570 5564 5557 5552 5544 5538 5533 5527 5518 5511 5506 5501 5495 5489 5483 5475 5470 5465 5462 5458 5455 5452 5449 5447 5444 5441 5439 5439 5439 5437 5436 5437 5436 5436 5441 5444 5449 5454 5457
5588 5582 5574 5569 5564 5558 5550 5543 5537 5531 5524 5516 5508 5502 5498 5494 5487 5482 5476 5470 5466 5461 5456 5452 5450 5448 5445 5443 5442 5439 5435 5432 5432 5432 5431 5431 5431 5432 5436 5442 5446 5452 5460
5581 5575 5568 5561 5556 5549 5543 5537 5531 5525 5516 5510 5504 5498 5492 5486 5481 5477 5472 5467 5464 5459 5455 5449 5446 5444 5442 5441 5439 5435 5433 5431 5430 5428 5427 5426 5427 5429 5432 5435 5440 5447 5455
5575 5568 5562 5554 5548 5542 5537 5533 5526 5520 5514 5507 5500 5493 5486 5480 5476 5472 5469 5466 5462 5458 5452 5448 5446 5443 5440 5437 5433 5432 5430 5428 5426 5425 5423 5422 5422 5425 5428 5430 5434 5439 5447
5568 5561 5554 5547 5541 5535 5530 5527 5523 5518 5514 5506 5496 5490 5484 5476 5473 5470 5466 5462 5461 5456 5450 5447 5445 5442 5438 5435 5432 5429 5427 5425 5422 5420 5419 5418 5418 5418 5419 5422 5425 5430 5437
5560 5554 5547 5542 5536 5530 5527 5523 5518 5515 5510 5502 5494 5486 5479 5474 5470 5467 5463 5460 5460 5454 5448 5447 5441 5437 5434 5430 5426 5424 5422 5421 5418 5417 5415 5414 5413 5413 5414 5415 5418 5423 5430
5556 5550 5543 5539 5533 5529 5524 5520 5514 5507 5499 5493 5488 5481 5477 5473 5468 5464 5461 5459 5456 5452 5446 5441 5438 5434 5428 5424 5420 5418 5416 5416 5414 5412 5411 5410 5409 5408 5409 5410 5412 5415 5421
5552 5546 5541 5536 5531 5528 5523 5516 5510 5504 5496 5488 5482 5478 5474 5467 5464 5463 5460 5457 5454 5449 5442 5439 5434 5429 5423 5419 5416 5414 5412 5410 5408 5406 5406 5405 5405 5404 5405 5405 5408 5410 5416
5546 5541 5538 5534 5529 5526 5520 5514 5507 5500 5492 5484 5478 5475 5473 5467 5467 5465 5461 5457 5451 5445 5440 5435 5430 5425 5421 5416 5412 5409 5408 5405 5404 5404 5403 5401 5400 5400 5401 5402 5404 5408 5413
5541 5538 5534 5532 5528 5524 5518 5511 5504 5496 5489 5481 5476 5475 5469 5463 5467 5464 5462 5456 5450 5445 5440 5434 5429 5424 5419 5414 5411 5408 5405 5402 5400 5400 5399 5398 5395 5396 5397 5399 5402 5404 5409
5537 5535 5532 5528 5525 5522 5514 5507 5501 5495 5487 5480 5477 5474 5469 5466 5467 5464 5461 5455 5450 5444 5439 5432 5427 5423 5417 5414 5410 5407 5403 5400 5399 5399 5398 5395 5393 5395 5396 5399 5400 5404 5410
5534 5531 5528 5524 5522 5518 5511 5504 5498 5491 5484 5479 5476 5474 5471 5469 5469 5465 5460 5457 5452 5446 5439 5433 5430 5426 5421 5416 5410 5406 5403 5402 5402 5401 5398 5395 5394 5397 5398 5399 5401 5404 5410
5528 5526 5524 5521 5518 5512 5505 5498 5493 5487 5482 5479 5476 5474 5470 5471 5470 5465 5462 5459 5456 5452 5444 5438 5435 5431 5426 5421 5417 5414 5412 5410 5407 5403 5400 5399 5400 5400 5401 5401 5403 5408 5413
5523 5521 5519 5516 5511 5505 5500 5494 5488 5483 5480 5479 5477 5475 5472 5471 5469 5467 5465 5462 5460 5456 5451 5446 5442 5439 5434 5430 5425 5422 5419 5415 5411 5408 5406 5405 5405 5405 5405 5405 5408 5411 5414
5519 5518 5516 5512 5506 5501 5495 5490 5485 5482 5479 5479 5478 5476 5475 5472 5469 5468 5467 5467 5464 5460 5458 5453 5449 5447 5443 5438 5433 5429 5427 5423 5419 5416 5414 5412 5411 5410 5410 5410 5412 5415 5418